Location: Shannon
(40.5500°S, 175.4167°E)
Time: 10:56:19
(UTC+00:00)

Cosmos 1302 Rocket - Pass Details

Date: 17 November 2025
Orbit: 752 x 772 km, 74.0° (Epoch: 09 December)

Event Time Altitude Azimuth Distance (km) Brightness Sun altitude
Rises 15:58:34 0° 198° (SSW) 3,265 7.5 -9.1°
Reaches altitude 10° 16:00:58 10° 196° (SSW) 2,328 6.8 -8.8°
Maximum altitude 16:06:16 75° 110° (ESE) 798 4.3 -7.9°
Drops below altitude 10° 16:11:27 10° 24° (NNE) 2,286 6.4 -7.1°
Sets 16:13:48 0° 22° (NNE) 3,201 7.1 -6.7°
